Location: Kerberlivit
(48.2787°N, 4.5413°W)
Time: 19:51:26
(UTC+00:00)

Meteor 2-10 Rocket - Pass Details

Date: 18 February 2020
Orbit: 734 x 884 km, 81.2° (Epoch: 05 April)

Event Time Altitude Azimuth Distance (km) Brightness Sun altitude
Exits shadow 05:45:09 27° 270° (W) 1,463 4.3 -16.6°
Maximum altitude 05:46:14 30° 292° (WNW) 1,386 4.3 -16.4°
Drops below altitude 10° 05:50:47 10° 353° (N) 2,310 5.9 -15.6°
Sets 05:53:24 0° 4° (N) 3,220 6.8 -15.2°
